When you browse on this site, cookies collect data to enhance your experience and personalize the content and advertising you see.
Visit our Privacy Policy to learn more. By continuing to use the site, you agree to this use of cookies and data.
EN

Hourly Weather Pidlisne

Today, 5 July, Sunday

Time Temperature Precipitation Wind Pressure Humidity
00:00 +22°C° 0.1 mm 3 mps 740 mmHg 92%
01:00 +21°C° 0.1 mm 4 mps 740 mmHg 92%
02:00 +21°C° 0.1 mm 4 mps 740 mmHg 93%
03:00 +21°C° 0 mm 4 mps 740 mmHg 93%
04:00 +21°C° 0 mm 3 mps 740 mmHg 93%
05:00 +20°C° 0 mm 3 mps 739 mmHg 93%
06:00 +22°C° 0 mm 3 mps 740 mmHg 88%
07:00 +24°C° 0 mm 3 mps 740 mmHg 83%
08:00 +25°C° 0 mm 4 mps 740 mmHg 78%
09:00 +26°C° 0 mm 4 mps 740 mmHg 75%
10:00 +27°C° 0 mm 4 mps 740 mmHg 72%
11:00 +29°C° 0 mm 5 mps 740 mmHg 69%
12:00 +29°C° 0 mm 5 mps 740 mmHg 68%
13:00 +29°C° 0 mm 4 mps 740 mmHg 66%
14:00 +30°C° 0 mm 4 mps 740 mmHg 65%
15:00 +30°C° 0 mm 4 mps 740 mmHg 66%
16:00 +29°C° 0 mm 5 mps 739 mmHg 67%
17:00 +29°C° 0 mm 5 mps 739 mmHg 68%
18:00 +27°C° 0.1 mm 4 mps 739 mmHg 74%
19:00 +26°C° 0.1 mm 4 mps 740 mmHg 80%
20:00 +23°C° 0.1 mm 4 mps 740 mmHg 85%
21:00 +22°C° 0 mm 4 mps 740 mmHg 88%
22:00 +22°C° 0 mm 3 mps 740 mmHg 90%
23:00 +21°C° 0 mm 3 mps 740 mmHg 92%

Tomorrow, 6 July, Monday

Time Temperature Precipitation Wind Pressure Humidity
00:00 +21°C° 0 mm 3 mps 740 mmHg 93%
01:00 +20°C° 0 mm 3 mps 740 mmHg 93%
02:00 +20°C° 0 mm 3 mps 740 mmHg 94%
03:00 +20°C° 0 mm 3 mps 740 mmHg 94%
04:00 +19°C° 0 mm 3 mps 740 mmHg 93%
05:00 +19°C° 0 mm 3 mps 740 mmHg 93%
06:00 +21°C° 0 mm 4 mps 740 mmHg 86%
07:00 +22°C° 0 mm 4 mps 740 mmHg 79%
08:00 +25°C° 0 mm 4 mps 740 mmHg 73%
09:00 +26°C° 0 mm 4 mps 740 mmHg 67%
10:00 +27°C° 0 mm 4 mps 740 mmHg 62%
11:00 +28°C° 0 mm 4 mps 740 mmHg 56%
12:00 +29°C° 0 mm 4 mps 739 mmHg 55%
13:00 +29°C° 0 mm 4 mps 739 mmHg 53%
14:00 +30°C° 0 mm 4 mps 739 mmHg 51%
15:00 +30°C° 0 mm 3 mps 738 mmHg 53%
16:00 +30°C° 0 mm 3 mps 738 mmHg 55%
17:00 +29°C° 0 mm 3 mps 738 mmHg 56%
18:00 +28°C° 0 mm 3 mps 737 mmHg 61%
19:00 +26°C° 0 mm 3 mps 737 mmHg 66%
20:00 +25°C° 0 mm 2 mps 737 mmHg 70%
21:00 +24°C° 0.1 mm 2 mps 737 mmHg 74%
22:00 +23°C° 0.1 mm 2 mps 737 mmHg 78%
23:00 +23°C° 0.1 mm 2 mps 737 mmHg 82%

Day after tomorrow, 7 July, Tuesday

Time Temperature Precipitation Wind Pressure Humidity
00:00 +21°C° 0.3 mm 2 mps 737 mmHg 85%
01:00 +21°C° 0.3 mm 2 mps 736 mmHg 88%
02:00 +20°C° 0.3 mm 2 mps 736 mmHg 92%
03:00 +21°C° 0 mm 2 mps 736 mmHg 92%
04:00 +21°C° 0 mm 2 mps 736 mmHg 92%
05:00 +21°C° 0 mm 3 mps 736 mmHg 92%
06:00 +24°C° 0 mm 2 mps 736 mmHg 86%
07:00 +25°C° 0 mm 2 mps 736 mmHg 79%
08:00 +27°C° 0 mm 2 mps 736 mmHg 73%
09:00 +28°C° 0.2 mm 2 mps 736 mmHg 67%
10:00 +30°C° 0.2 mm 2 mps 736 mmHg 61%
11:00 +31°C° 0.2 mm 2 mps 735 mmHg 54%
12:00 +31°C° 0 mm 2 mps 735 mmHg 52%
13:00 +32°C° 0 mm 2 mps 735 mmHg 49%
14:00 +34°C° 0 mm 2 mps 735 mmHg 46%
15:00 +32°C° 0 mm 2 mps 734 mmHg 48%
16:00 +32°C° 0 mm 2 mps 734 mmHg 49%
17:00 +32°C° 0 mm 2 mps 734 mmHg 51%
18:00 +29°C° 0.5 mm 3 mps 734 mmHg 59%
19:00 +27°C° 0.5 mm 4 mps 734 mmHg 67%
20:00 +25°C° 0.5 mm 4 mps 735 mmHg 75%
21:00 +23°C° 1.6 mm 5 mps 735 mmHg 79%
22:00 +22°C° 1.6 mm 6 mps 735 mmHg 83%
23:00 +20°C° 1.6 mm 8 mps 735 mmHg 87%

8 July, Wednesday

Time Temperature Precipitation Wind Pressure Humidity
00:00 +20°C° 0.3 mm 6 mps 735 mmHg 88%
01:00 +20°C° 0.3 mm 4 mps 735 mmHg 88%
02:00 +20°C° 0.3 mm 3 mps 735 mmHg 88%
03:00 +20°C° 0.3 mm 3 mps 735 mmHg 89%
04:00 +20°C° 0.3 mm 3 mps 736 mmHg 91%
05:00 +20°C° 0.3 mm 3 mps 736 mmHg 92%
06:00 +21°C° 0.1 mm 3 mps 736 mmHg 90%
07:00 +22°C° 0.1 mm 4 mps 736 mmHg 88%
08:00 +23°C° 0.1 mm 4 mps 736 mmHg 87%
09:00 +23°C° 0 mm 5 mps 737 mmHg 84%
10:00 +24°C° 0 mm 6 mps 737 mmHg 81%
11:00 +26°C° 0 mm 6 mps 737 mmHg 78%
12:00 +26°C° 0 mm 7 mps 737 mmHg 77%
13:00 +26°C° 0 mm 7 mps 737 mmHg 76%
14:00 +26°C° 0 mm 7 mps 738 mmHg 75%
15:00 +24°C° 0 mm 7 mps 738 mmHg 77%
16:00 +23°C° 0 mm 7 mps 738 mmHg 78%
17:00 +22°C° 0 mm 7 mps 738 mmHg 80%
18:00 +21°C° 0.1 mm 7 mps 738 mmHg 81%
19:00 +20°C° 0.1 mm 7 mps 739 mmHg 83%
20:00 +18°C° 0.1 mm 7 mps 739 mmHg 84%
21:00 +18°C° 0 mm 7 mps 739 mmHg 84%
22:00 +17°C° 0 mm 7 mps 739 mmHg 84%
23:00 +17°C° 0 mm 6 mps 739 mmHg 84%

9 July, Thursday

Time Temperature Precipitation Wind Pressure Humidity
00:00 +16°C° 0 mm 7 mps 739 mmHg 82%
01:00 +16°C° 0 mm 7 mps 740 mmHg 80%
02:00 +16°C° 0 mm 7 mps 740 mmHg 78%
03:00 +16°C° 0 mm 7 mps 740 mmHg 80%
04:00 +15°C° 0 mm 7 mps 740 mmHg 82%
05:00 +15°C° 0 mm 7 mps 740 mmHg 84%
06:00 +16°C° 0 mm 7 mps 741 mmHg 80%
07:00 +17°C° 0 mm 7 mps 741 mmHg 76%
08:00 +18°C° 0 mm 7 mps 742 mmHg 73%
09:00 +20°C° 0 mm 7 mps 742 mmHg 69%
10:00 +21°C° 0 mm 8 mps 742 mmHg 65%
11:00 +22°C° 0 mm 8 mps 742 mmHg 61%
12:00 +22°C° 0 mm 8 mps 742 mmHg 60%
13:00 +23°C° 0 mm 8 mps 742 mmHg 59%
14:00 +23°C° 0 mm 8 mps 742 mmHg 58%
15:00 +23°C° 0 mm 7 mps 742 mmHg 59%
16:00 +23°C° 0 mm 7 mps 742 mmHg 60%
17:00 +22°C° 0 mm 7 mps 742 mmHg 61%
18:00 +21°C° 0 mm 6 mps 742 mmHg 66%
19:00 +20°C° 0 mm 5 mps 743 mmHg 72%
20:00 +18°C° 0 mm 4 mps 743 mmHg 77%
21:00 +18°C° 0 mm 4 mps 743 mmHg 79%
22:00 +17°C° 0 mm 4 mps 743 mmHg 80%
23:00 +16°C° 0 mm 3 mps 744 mmHg 82%

10 July, Friday

Time Temperature Precipitation Wind Pressure Humidity
00:00 +16°C° 0 mm 3 mps 744 mmHg 84%
01:00 +14°C° 0 mm 3 mps 744 mmHg 86%
02:00 +14°C° 0 mm 3 mps 744 mmHg 88%
03:00 +14°C° 0 mm 4 mps 744 mmHg 89%
04:00 +14°C° 0 mm 4 mps 744 mmHg 89%
05:00 +14°C° 0 mm 4 mps 744 mmHg 89%
06:00 +15°C° 0 mm 4 mps 744 mmHg 83%
07:00 +17°C° 0 mm 5 mps 744 mmHg 77%
08:00 +20°C° 0 mm 5 mps 745 mmHg 70%
09:00 +21°C° 0 mm 5 mps 745 mmHg 65%
10:00 +22°C° 0 mm 5 mps 745 mmHg 59%
11:00 +23°C° 0 mm 6 mps 745 mmHg 53%
12:00 +23°C° 0 mm 6 mps 744 mmHg 52%
13:00 +24°C° 0 mm 6 mps 744 mmHg 50%
14:00 +24°C° 0 mm 6 mps 744 mmHg 48%
15:00 +24°C° 0 mm 6 mps 744 mmHg 50%
16:00 +25°C° 0 mm 5 mps 744 mmHg 53%
17:00 +23°C° 0 mm 5 mps 744 mmHg 55%
18:00 +22°C° 0 mm 5 mps 744 mmHg 62%
19:00 +20°C° 0 mm 4 mps 744 mmHg 69%
20:00 +18°C° 0 mm 3 mps 744 mmHg 76%
21:00 +18°C° 0 mm 3 mps 744 mmHg 78%
22:00 +17°C° 0 mm 3 mps 744 mmHg 81%
23:00 +16°C° 0 mm 3 mps 744 mmHg 83%
Show more